Temperature
16 16 16 17 17 17 17 17 17 17 17 17 17 17 17 17 17 17 16 16 16 16 16 15 15 15 15 15 15 15 15 15 15 15 15 15 15 14
16 16 16 16 16 16 16 16 16 17 17 17 17 17 17 17 17 16 16 16 16 16 15 15 15 15 15 15 15 15 15 15 15 14 14 14 14 14
15 16 16 16 16 16 16 16 16 16 16 16 16 16 16 16 16 16 16 16 15 15 15 15 15 15 15 15 15 15 15 15 14 14 14 14 14 14
15 15 15 15 15 16 16 16 16 16 16 16 16 16 16 16 16 16 15 15 15 15 15 15 15 15 15 15 15 15 14 14 14 14 14 14 14 14
15 15 15 15 15 15 15 15 15 15 15 15 15 15 15 15 15 15 15 15 15 14 14 14 14 14 14 14 14 14 14 14 14 14 14 14 14 14
15 15 15 15 15 15 15 15 15 15 15 15 15 14 14 14 14 14 14 14 14 14 14 14 14 14 14 14 14 14 13 13 13 13 13 13 13 13
15 15 14 14 14 14 14 14 14 14 14 14 14 14 13 13 13 13 13 13 13 13 13 13 13 13 13 13 13 13 12 12 12 12 12 12 12 12
14 14 14 14 14 14 13 13 13 13 13 13 13 12 12 12 12 12 12 12 12 12 12 12 12 12 12 12 11 11 11 11 11 11 11 11 11 11
13 13 13 13 13 12 12 12 12 12 12 12 11 11 11 11 10 10 10 10 10 10 10 10 10 10 10 10 10 10 10 10 10 10 10 10 10 10
12 12 12 12 12 11 11 11 11 11 11 10 10 10 9 9 9 9 9 9 9 9 8 8 8 9 9 9 9 9 9 9 9 9 9 9 9 9
11 11 11 11 11 10 10 10 10 10 9 9 9 8 8 8 8 8 8 8 8 8 7 7 7 7 8 8 8 8 8 8 8 8 8 8 8 8
10 10 10 10 10 9 9 9 9 9 8 8 8 7 7 7 7 7 7 6 6 6 6 5 5 5 5 6 6 6 6 7 7 7 7 7 7 7
10 9 9 9 8 8 8 8 7 7 7 7 7 6 6 6 6 6 5 5 5 5 4 4 4 4 4 4 5 5 5 5 5 6 6 6 6 6
9 8 8 7 7 7 7 6 6 6 6 6 6 5 5 5 5 5 4 4 4 4 3 3 3 3 3 3 3 4 4 4 4 4 4 5 5 5
7 7 7 6 6 6 6 5 5 5 5 5 5 4 4 4 4 4 4 4 4 3 3 3 2 2 2 2 2 2 3 3 3 3 3 4 4 4
7 6 6 6 6 5 5 5 5 4 4 4 3 3 3 3 3 3 3 3 3 3 3 2 2 2 1 1 2 2 2 2 2 2 2 3 3 4
6 6 5 5 5 5 4 4 4 3 3 3 2 2 2 2 2 2 1 1 1 1 1 2 1 1 1 1 1 1 1 1 2 2 2 2 3 3
5 5 5 4 4 3 3 3 3 2 2 2 1 1 1 1 1 1 1 1 0 0 0 0 0 0 1 1 1 1 1 1 1 1 2 1 2 3
5 4 4 3 3 3 2 2 2 1 1 1 1 1 0 0 0 0 0 -0 -0 -0 -0 -0 -0 -0 -1 -1 0 1 0 1 1 1 1 1 1 2
4 3 3 3 2 2 2 1 1 1 1 0 0 0 -0 -0 -0 -0 -0 -1 -1 -1 -1 -0 -0 -1 -1 -1 -1 0 1 0 0 0 1 1 2 2
3 3 2 2 2 1 1 1 1 0 0 0 -0 -0 -0 -0 -0 -1 -1 -1 -1 -1 -1 -1 -1 -1 -1 -1 -0 0 1 1 0 0 1 1 1 2
2 2 2 1 1 1 1 1 0 0 -0 -0 -0 -0 -1 -1 -1 -1 -1 -1 -1 -1 -1 -1 -1 -1 -1 -1 -0 -0 0 1 1 1 1 1 1 1
2 2 1 1 1 1 0 0 -0 -0 -0 -0 -1 -1 -1 -1 -1 -1 -1 -1 -1 -1 -1 -1 -1 -1 -1 -1 -0 -0 0 0 1 1 2 2 1 1
Wind_Speed
2 2 1 1 1 1 2 3 4 2 2 3 3 3 5 7 11 12 12 15 17 17 18 18 17 17 16 16 16 16 16 16 16 16 16 16 16 16
2 2 1 1 2 2 2 2 3 4 3 3 3 3 2 2 6 9 10 11 13 15 16 17 17 17 17 17 17 17 17 17 17 17 17 17 17 17
1 1 1 1 1 2 2 2 2 2 2 3 2 2 2 2 1 2 4 4 6 9 12 13 15 15 16 16 16 17 17 17 18 18 18 18 18 18
2 1 1 1 2 1 2 2 1 1 2 1 2 3 3 2 2 1 2 3 4 5 5 7 8 10 12 13 14 16 16 17 17 18 18 18 18 19
2 2 1 2 2 1 2 2 1 2 1 1 1 2 2 3 3 3 3 4 5 6 6 6 9 10 11 12 12 12 13 14 15 17 18 18 18 18
3 3 3 3 3 2 3 2 2 3 2 2 1 2 3 3 3 3 4 4 4 6 8 9 11 12 13 12 11 12 12 13 14 15 16 17 18 18
6 5 5 6 7 5 4 3 3 3 3 3 2 3 3 3 3 3 3 4 3 3 5 6 7 8 11 13 13 15 15 14 14 14 15 16 16 17
7 6 6 7 9 10 10 9 7 4 3 2 2 2 2 2 2 2 3 3 4 3 4 5 4 5 8 10 14 16 15 14 14 15 15 16 16 16
6 6 6 7 8 6 9 11 10 10 6 3 2 1 1 2 2 2 2 2 3 4 3 4 4 4 7 11 14 15 15 15 16 16 16 16 16 15
8 7 7 7 7 6 7 7 7 7 6 5 2 2 2 2 1 1 2 3 4 4 2 3 4 4 7 11 12 14 16 18 18 18 17 18 18 17
8 8 8 7 9 9 7 7 6 6 9 11 10 9 10 11 7 3 3 3 3 3 3 2 4 5 5 5 9 14 18 20 20 19 18 18 18 18
6 7 9 8 9 9 7 6 6 5 6 7 9 11 11 11 11 6 2 2 2 3 3 3 3 4 5 4 4 11 14 16 19 20 20 20 19 13
5 4 4 8 9 10 8 5 5 4 5 6 6 6 6 6 7 8 5 1 1 3 4 3 3 3 3 5 5 6 8 10 14 15 18 19 19 14
5 3 3 8 10 10 8 8 10 8 5 5 5 5 5 5 5 7 8 7 4 5 7 4 2 3 4 5 6 5 7 10 10 7 10 16 17 18
4 5 7 9 9 8 10 11 9 6 5 5 5 4 4 4 5 5 7 9 9 9 9 8 4 4 4 6 6 6 7 7 6 6 7 8 8 9
5 7 10 11 9 8 8 7 6 5 4 3 3 3 4 5 5 4 4 5 4 5 9 13 10 5 5 7 8 9 8 6 7 9 9 8 9 11
5 5 6 5 6 6 5 5 5 5 5 4 4 4 4 5 4 4 4 4 4 5 6 6 12 11 6 7 8 8 8 8 9 10 9 10 9 9
8 5 5 5 5 4 4 4 4 4 4 4 4 4 4 5 5 5 5 4 5 6 6 6 7 7 6 6 7 7 7 8 9 10 9 10 11 10
7 5 4 4 3 3 3 3 3 3 3 3 4 4 5 5 5 6 6 6 6 7 7 7 7 6 9 11 6 8 9 11 10 10 9 10 12 12
4 4 3 3 2 2 2 2 2 3 3 3 4 4 5 5 6 6 6 7 7 8 8 7 6 7 8 9 8 10 15 11 10 11 11 11 10 13
3 3 2 2 2 1 1 2 2 2 3 3 3 5 5 5 6 7 7 9 8 7 9 9 9 13 8 7 8 9 9 14 15 12 12 11 11 9
2 2 2 2 1 1 1 1 2 2 3 3 4 5 5 5 6 8 7 8 8 8 10 10 10 9 6 8 11 12 12 13 15 18 16 14 9 8
1 1 1 1 1 1 1 1 1 2 3 4 5 5 6 6 6 7 7 8 8 10 10 10 9 8 8 9 10 11 14 14 11 10 10 15 18 19
Wind_Direction
152 139 150 137 96 114 134 146 147 168 280 288 296 285 247 227 222 215 221 225 227 233 238 243 247 249 251 253 254 256 258 260 261 262 262 263 265 267
161 139 131 120 75 71 87 106 139 159 214 269 271 299 305 236 225 216 225 233 236 241 247 251 253 255 257 258 259 260 261 263 264 264 265 266 267 268
171 156 194 153 97 69 76 84 95 137 188 281 293 326 14 5 17 239 253 262 267 264 260 264 266 268 269 269 268 268 267 268 267 267 268 269 270 270
197 170 209 136 93 70 78 74 72 121 157 256 321 348 359 350 1 3 3 346 319 314 300 295 296 295 292 288 283 278 275 273 273 273 272 271 270 270
175 160 163 123 104 81 77 69 49 53 87 122 345 358 3 12 14 4 10 3 350 345 355 358 345 334 322 313 307 301 294 288 284 282 280 277 275 272
98 96 89 104 111 100 79 59 62 56 52 68 36 13 10 2 31 8 351 345 339 359 3 358 352 347 341 337 331 323 314 306 299 294 289 286 281 278
85 76 74 82 81 80 82 70 70 65 54 55 41 27 13 14 5 349 341 326 323 357 348 343 344 345 341 340 336 330 326 322 316 309 302 296 291 287
94 78 68 63 70 68 69 66 69 74 69 60 44 38 349 333 335 349 349 354 324 333 352 324 344 334 335 336 337 339 341 341 338 330 321 314 306 299
92 85 76 60 54 59 59 56 51 51 61 92 71 334 298 284 315 330 331 308 282 299 339 306 322 322 330 335 337 343 348 347 343 339 333 327 319 310
81 83 80 59 53 62 67 58 46 37 39 47 43 331 331 310 269 263 285 305 297 302 348 303 315 312 319 317 325 342 349 347 341 336 333 330 325 316
76 76 78 70 56 63 68 60 43 23 31 36 40 36 32 32 37 41 17 13 332 312 350 331 305 311 303 300 325 346 345 336 331 327 325 323 320 317
74 66 66 67 58 60 67 63 48 13 12 23 29 28 33 34 36 42 35 16 327 311 328 336 310 330 316 301 319 329 327 324 325 321 316 315 315 315
83 61 44 53 57 59 65 66 52 39 30 34 32 26 22 22 20 20 24 45 358 290 309 328 310 315 287 298 304 303 312 315 316 311 311 312 312 309
84 57 43 56 60 57 58 51 48 49 45 39 34 20 13 4 352 355 359 355 332 291 308 327 302 303 302 303 299 300 307 307 303 299 310 316 314 310
76 71 68 65 60 55 53 52 50 49 44 40 28 7 346 338 346 349 350 350 341 339 343 337 315 298 290 294 296 298 307 302 296 306 310 307 304 305
59 62 63 62 61 54 47 45 46 49 52 39 9 348 348 357 358 350 344 342 341 325 328 333 324 308 299 292 295 300 300 295 304 305 305 301 298 296
74 63 56 54 53 45 40 35 33 33 33 19 14 3 356 354 342 338 339 343 338 318 317 317 323 316 285 285 296 295 298 301 302 305 308 305 298 293
82 73 68 67 66 56 47 32 26 25 19 15 11 0 350 343 335 333 336 334 325 315 312 310 321 323 320 299 261 282 298 302 302 302 301 302 302 299
80 77 76 73 69 61 51 38 16 2 9 17 10 356 347 341 337 332 331 328 322 316 313 313 320 323 324 323 296 285 299 305 304 306 302 300 299 299
76 83 82 80 76 64 41 26 15 9 14 11 2 351 345 338 332 327 322 319 318 315 315 315 314 313 309 306 300 301 299 294 301 304 305 302 294 287
61 66 76 85 80 67 42 31 34 19 4 353 343 334 329 327 322 318 316 315 315 313 314 312 303 306 300 295 301 302 296 296 294 294 300 304 306 305
82 78 76 92 93 68 46 45 35 7 347 337 323 318 315 314 311 310 312 312 309 306 304 303 304 309 307 307 308 308 306 308 309 305 296 287 293 302
124 116 104 101 66 70 88 74 28 337 324 318 314 311 311 311 308 305 305 304 305 307 309 309 311 309 306 303 304 306 306 311 314 316 310 306 303 295
Height
1553 1555 1556 1557 1558 1558 1559 1559 1560 1559 1559 1560 1560 1560 1560 1560 1561 1561 1562 1562 1562 1561 1561 1561 1560 1560 1559 1559 1558 1557 1557 1556 1556 1555 1555 1554 1554 1554
1552 1553 1554 1555 1556 1556 1557 1557 1558 1558 1558 1558 1558 1557 1557 1558 1558 1559 1559 1559 1559 1558 1558 1557 1557 1556 1556 1555 1554 1553 1553 1552 1551 1551 1550 1549 1549 1548
1550 1551 1552 1553 1554 1554 1555 1555 1555 1556 1556 1556 1556 1556 1555 1555 1555 1556 1556 1556 1555 1555 1554 1553 1553 1552 1551 1550 1550 1549 1548 1547 1546 1545 1545 1544 1543 1542
1548 1549 1550 1551 1552 1552 1553 1553 1553 1553 1553 1553 1553 1553 1553 1553 1553 1553 1552 1552 1551 1551 1550 1549 1548 1547 1546 1545 1544 1543 1543 1542 1541 1540 1539 1538 1537 1536
1546 1547 1548 1549 1549 1550 1550 1550 1550 1550 1550 1550 1550 1550 1549 1549 1549 1549 1548 1548 1547 1546 1545 1544 1543 1542 1541 1540 1539 1537 1536 1535 1534 1533 1532 1531 1530 1529
1544 1545 1546 1546 1547 1547 1547 1547 1547 1547 1547 1547 1547 1546 1546 1545 1545 1544 1544 1543 1542 1541 1540 1539 1538 1537 1535 1534 1533 1531 1530 1529 1527 1526 1525 1524 1523 1522
1542 1543 1543 1544 1544 1544 1544 1544 1544 1544 1544 1543 1543 1542 1542 1541 1540 1539 1538 1537 1537 1535 1534 1533 1532 1531 1529 1528 1526 1525 1523 1522 1520 1519 1517 1516 1515 1513
1539 1540 1541 1541 1541 1541 1541 1541 1541 1541 1540 1540 1539 1538 1538 1537 1536 1535 1534 1532 1531 1530 1528 1527 1526 1524 1523 1521 1520 1518 1516 1515 1513 1511 1510 1508 1507 1505
1537 1538 1538 1539 1539 1539 1538 1538 1538 1537 1537 1537 1536 1535 1534 1533 1532 1531 1530 1528 1527 1525 1523 1521 1520 1518 1517 1515 1514 1512 1510 1508 1506 1504 1502 1501 1499 1497
1536 1536 1537 1537 1537 1537 1536 1536 1535 1535 1534 1533 1533 1531 1531 1529 1528 1527 1526 1524 1523 1522 1519 1517 1514 1512 1511 1510 1508 1506 1504 1502 1500 1497 1495 1493 1491 1489
1534 1535 1535 1535 1535 1535 1535 1534 1533 1533 1532 1531 1530 1529 1528 1526 1525 1524 1522 1520 1518 1517 1515 1513 1509 1506 1504 1503 1502 1500 1497 1495 1492 1490 1487 1485 1483 1480
1533 1534 1534 1534 1534 1533 1533 1532 1531 1531 1530 1529 1528 1527 1525 1524 1522 1521 1519 1517 1515 1513 1511 1509 1505 1502 1498 1496 1495 1493 1490 1488 1485 1482 1480 1477 1475 1472
1533 1533 1533 1533 1532 1532 1531 1531 1530 1530 1528 1527 1526 1525 1523 1522 1520 1519 1517 1515 1513 1511 1509 1505 1502 1499 1496 1491 1488 1486 1484 1480 1477 1475 1472 1470 1467 1465
1532 1533 1532 1532 1532 1531 1531 1530 1530 1529 1528 1526 1525 1523 1521 1520 1518 1516 1514 1513 1511 1508 1505 1502 1499 1495 1491 1486 1482 1479 1477 1474 1471 1468 1465 1462 1460 1457
1532 1533 1533 1532 1532 1531 1530 1530 1529 1527 1526 1524 1523 1521 1520 1518 1515 1513 1511 1509 1507 1505 1502 1499 1495 1491 1488 1483 1478 1474 1470 1467 1465 1462 1458 1455 1452 1449
1533 1533 1533 1532 1532 1531 1530 1529 1528 1526 1525 1523 1521 1520 1518 1515 1513 1510 1507 1504 1501 1499 1497 1494 1491 1487 1482 1479 1475 1470 1466 1463 1459 1456 1452 1448 1445 1442
1533 1533 1533 1533 1532 1531 1530 1528 1527 1525 1524 1522 1520 1518 1515 1513 1510 1507 1504 1501 1498 1494 1491 1489 1486 1482 1479 1475 1470 1466 1461 1457 1454 1450 1445 1440 1437 1435
1534 1534 1533 1532 1532 1531 1530 1528 1527 1525 1523 1521 1519 1516 1513 1510 1507 1504 1501 1498 1494 1491 1487 1484 1480 1476 1472 1469 1467 1461 1457 1452 1448 1444 1440 1435 1429 1427
1534 1534 1534 1533 1532 1531 1530 1528 1526 1524 1522 1520 1517 1514 1511 1508 1504 1501 1498 1494 1491 1488 1484 1481 1477 1473 1468 1463 1459 1458 1453 1447 1442 1438 1434 1430 1424 1420
1535 1534 1534 1533 1532 1531 1529 1527 1525 1523 1521 1518 1515 1512 1508 1505 1501 1498 1494 1491 1488 1484 1481 1478 1475 1471 1467 1462 1456 1451 1449 1444 1439 1433 1429 1424 1419 1415
1535 1535 1534 1533 1532 1530 1528 1527 1524 1522 1519 1516 1513 1509 1506 1502 1498 1494 1491 1488 1485 1481 1478 1474 1471 1468 1464 1459 1453 1447 1443 1440 1436 1431 1425 1420 1414 1409
1536 1535 1534 1532 1531 1530 1528 1526 1523 1520 1517 1514 1510 1507 1503 1499 1495 1491 1488 1485 1482 1478 1475 1471 1468 1464 1460 1455 1450 1444 1439 1435 1431 1427 1423 1418 1413 1406
1535 1534 1533 1532 1530 1529 1527 1524 1521 1518 1515 1511 1507 1504 1500 1496 1492 1488 1485 1482 1479 1475 1472 1468 1464 1460 1456 1452 1447 1441 1436 1431 1426 1421 1417 1414 1410 1405